This is the latest recevied weather packets stored in our database for station/object N1HRK. If no packets are shown the sender has not sent any weather packets the latest 10 day(s).
| Time | Temp. | Humidity | Pressure | Rain* | Wind** | Luminosity | Snow |
|---|---|---|---|---|---|---|---|
| 1777890123 | 7.78° C | 77% | 1012.2 hPa | 0 mm | - | - | - |
| 1777889524 | 7.22° C | 78% | 1012.2 hPa | 0 mm | - | - | - |
| 1777888924 | 7.22° C | 77% | 1012 hPa | 0 mm | - | - | - |
| 1777888353 | 7.78° C | 76% | 1011.9 hPa | 0 mm | - | - | - |
| 1777888323 | 7.78° C | 76% | 1011.8 hPa | 0 mm | - | - | - |
| 1777887723 | 7.78° C | 76% | 1011.7 hPa | 0 mm | - | - | - |
| 1777887153 | 7.22° C | 75% | 1011.7 hPa | 0 mm | - | - | - |
| 1777887123 | 7.78° C | 75% | 1011.7 hPa | 0 mm | - | - | - |
| 1777886524 | 7.22° C | 75% | 1011.7 hPa | 0 mm | - | - | - |
| 1777885924 | 6.67° C | 74% | 1011.7 hPa | 0 mm | - | - | - |
| 1777885324 | 7.22° C | 74% | 1011.6 hPa | 0 mm | - | - | - |
| 1777884753 | 6.67° C | 74% | 1011.6 hPa | 0 mm | - | - | - |
| 1777884723 | 6.67° C | 74% | 1011.6 hPa | 0 mm | - | - | - |
| 1777884124 | 6.67° C | 74% | 1011.6 hPa | 0 mm | - | - | - |
| 1777883524 | 6.67° C | 76% | 1011.6 hPa | 0 mm | - | - | - |
| 1777882924 | 6.67° C | 77% | 1011.7 hPa | 0 mm | - | - | - |
| 1777882323 | 6.67° C | 78% | 1011.8 hPa | 0 mm | - | - | - |
| 1777881723 | 6.67° C | 79% | 1011.7 hPa | 0 mm | - | - | - |
| 1777881124 | 6.11° C | 77% | 1011.6 hPa | 0 mm | - | - | - |
| 1777880523 | 6.67° C | 77% | 1011.6 hPa | 0 mm | - | - | - |
| 1777879923 | 6.11° C | 78% | 1011.6 hPa | 0 mm | - | - | - |
| 1777879324 | 6.67° C | 77% | 1011.6 hPa | 0 mm | - | - | - |
| 1777878724 | 6.11° C | 75% | 1011.6 hPa | 0 mm | - | - | - |
| 1777878124 | 6.11° C | 75% | 1011.6 hPa | 0 mm | - | - | - |
| 1777877524 | 5.56° C | 75% | 1011.6 hPa | 0 mm | - | - | - |
* Rain latest hour (hover to see other rain measurements)
** Current wind speed in m/s (hover to see current wind gust speed)